Regional Weather Roundup
Issued by NWS

Home | Current Version | Previous Version | Graphics & Text | Print | Product List | Glossary On
Versions: 1 2 3 4 5 6 7 8 9 10 11 12 13 14 15 16 17 18 19 20 21 22 23 24 25 26 27 28 29 30 31 32 33 34 35 36 37 38 39 40 41 42 43 44 45 46 47 48 49 50
000
ASUS43 KMKX 162259
RWRWI

WISCONSIN REGIONAL WEATHER ROUNDUP
NATIONAL WEATHER SERVICE MILWAUKEE/SULLIVAN WI
500 PM CST TUE JAN 16 2018

NOTE: "FAIR" INDICATES FEW OR NO CLOUDS BELOW 12,000 FEET WITH NO
SIGNIFICANT WEATHER AND/OR OBSTRUCTIONS TO VISIBILITY.

WIZ001-002-006>008-014>016-023>028-170000-
NORTHWEST WISCONSIN

CITY           SKY/WX    TMP DP  RH WIND       PRES   REMARKS
SUPERIOR ARPT  FAIR      12   2  63 SW7       30.54F WCI   1
ASHLAND        FAIR      12   6  77 SW9       30.51S WCI   0
HAYWARD        FAIR      11   3  70 W5        30.50F WCI   3
SIREN          FAIR       6  -3  67 W7        30.57S WCI  -5
CUMBERLAND     FAIR       5   0  78 W8        30.52F WCI  -8
RICE LAKE      FAIR       8   1  72 CALM      30.55F
CHETEK         FAIR       8   2  75 W6        30.54F WCI  -2
LADYSMITH      FAIR      16   8  70 W7        30.51S WCI   6
EAU CLAIRE     NOT AVBL
MENOMONIE      FAIR       7  -1  71 W6        30.58F WCI  -3
NEW RICHMOND   FAIR       6  -4  64 W8        30.59S WCI  -7
OSCEOLA        FAIR       7  -3  64 W5        30.63S WCI  -1
$$

WIZ003>005-009-010-017-018-170000-
NORTH CENTRAL WISCONSIN

CITY           SKY/WX    TMP DP  RH WIND       PRES   REMARKS
MANITOWISH WTR FAIR      10   6  84 CALM      30.40F
ARBOR VITAE    FAIR      14  10  85 CALM      30.41F
WOODRUFF       FAIR      14  10  85 CALM      30.41F
RHINELANDER    FAIR      12   7  80 W5        30.41F WCI   4
EAGLE RIVER    FLURRIES  16  11  79 W5        30.39F WCI   9
LAND O LAKES   LGT SNOW  17  12  84 NW6       30.41F WCI   8
PHILLIPS       FAIR      16   7  69 CALM      30.44S
TOMAHAWK       FAIR      16   9  72 W3        30.44S
MEDFORD        FAIR      16   8  71 W9        30.45S WCI   4
MERRILL        MOCLDY    19   9  65 W3        30.46S
$$

WIZ029-030-035-036-043>047-170000-
CENTRAL WISCONSIN

CITY           SKY/WX    TMP DP  RH WIND       PRES   REMARKS
WAUSAU         CLOUDY    19   9  65 W3        30.44S
MOSINEE        MOCLDY    19  12  73 W10       30.48R WCI   8
MARSHFIELD     FAIR      13   7  77 W7        30.48R WCI   3
STEVENS POINT  CLOUDY    18  12  77 W6        30.48S WCI  10
WAUPACA        MOCLDY    23  10  56 NW3       30.49S
WAUTOMA        FAIR      15   8  73 W6        30.51R WCI   6
WISC RAPIDS    FAIR      17   8  67 NW8       30.51S WCI   7
CAMP DOUGLAS   PTCLDY    14   9  79 W9        30.53S WCI   2
$$

WIZ011>013-019>022-031-037>040-048>050-170000-
NORTHEAST WISCONSIN

CITY           SKY/WX    TMP DP  RH WIND       PRES   REMARKS
ANTIGO         CLOUDY    17   7  65 NW5       30.43S WCI   9
SHAWANO        CLOUDY    23  12  62 NW3       30.48R
OCONTO         FAIR      18  14  86 W3        30.47S
STURGEON BAY   FLURRIES  12   4  70 CALM      30.47S
GREEN BAY      FAIR      17  10  74 SW3       30.48S
MANITOWOC      FAIR      15   9  76 W3        30.50R
APPLETON       PTCLDY    18   9  68 NW6       30.46R WCI   9
CLINTONVILLE   CLOUDY    21  10  63 NW6       30.48S WCI  14
OSHKOSH        MOCLDY    18  13  80 W3        30.48S
$$

WIZ032>034-041-042-053>061-170000-
SOUTHWEST WISCONSIN

CITY           SKY/WX    TMP DP  RH WIND       PRES   REMARKS
LA CROSSE      FAIR      11   4  73 NW7       30.60R WCI   0
SPARTA         FAIR      14   8  77 W3        30.57S
VIROQUA        FAIR      10   6  83 W7        30.53S WCI  -1
BOSCOBEL       FAIR      14   6  70 SW5       30.60R WCI   6
PRAIRIE DU CHI FAIR      13   5  69 W6        30.61R WCI   4
PLATTEVILLE    FAIR      14   9  80 W8        30.55R WCI   2
$$

WIZ056-057-062-063-064-067-068-170000-
SOUTH CENTRAL WISCONSIN

CITY           SKY/WX    TMP DP  RH WIND       PRES   REMARKS
REEDSBURG      FAIR      17  10  71 W8        30.53R WCI   7
BARABOO/DELLS  FAIR      19  11  69 NW5       30.52R WCI  12
LONE ROCK      NOT AVBL
MINERAL POINT  FAIR      16  10  79 W9        30.52R WCI   4
MADISON        FAIR      18  10  71 NW3       30.52R
MIDDLETON      FAIR      17  10  75 NW3       30.52R
WATERTOWN      FAIR      18  12  78 CALM      30.50R
MONROE         FAIR      19  10  68 W6        30.50R WCI  11
JANESVILLE     CLEAR     14   9  79 NW6       30.52R WCI   5
$$

WIZ051-052-058>065-066-070>072-170000-
SOUTHEAST WISCONSIN

CITY           SKY/WX    TMP DP  RH WIND       PRES   REMARKS
MILWAUKEE      FAIR      22  10  60 NW12      30.49R WCI  10
WAUKESHA       CLEAR     16   9  73 NW8       30.49R WCI   5
MILWAUKEE/TIMM CLEAR     19   7  58 NW8       30.50R WCI   9
RACINE         MOCLDY    21   8  57 NW7       30.50R WCI  12
BURLINGTON     FAIR      19   9  65 NW10      30.50R WCI   7
KENOSHA        FAIR      20   7  57 NW7       30.49R WCI  11
FOND DU LAC    FAIR      18   9  68 CALM      30.49R
SHEBOYGAN      FAIR      16  10  77 W5        30.49R WCI   9
WEST BEND      FAIR      18  12  79 NW6       30.48R WCI   9
JUNEAU         FAIR      17  11  77 CALM      30.50R
$$

LSZ147-162-170000-
LAKE SUPERIOR

STATION/POSITION TIME  TEMP    WIND        PRES    WAVE
                       AIR SEA DIR/SP/G            HT/PER
                 (UTC) (F)     (DEG/KT/KT) (MB)    (FT/S)
DEVILS ISLAND    2200   14     230/ 19/ 22 1034.0F
SAXON HARBOR     2240   17     250/  4/ 10 1032.2F
$$

LMZ867-665-643>646-170000-
LAKE MICHIGAN

STATION/POSITION TIME  TEMP    WIND        PRES    WAVE
                       AIR SEA DIR/SP/G            HT/PER
                 (UTC) (F)     (DEG/KT/KT) (MB)    (FT/S)
NORTHPORT PIER   2240   15        CALM     1031.2S
KEWAUNEE LAKESHO 2230   18     290/  4/  4 1031.3R
SHEBOYGAN LAKESH 2200   21     310/ 10/ 12 1033.3R
PORT WASHINGTON  2240   20     320/  6/  9 1033.5R
MILWAUKEE LAKESH 2230   22     320/ 11/ 14   N/A
KENOSHA   LAKESH 2200   24     330/ 10/ 14 1031.8
$$

TC  - TEMPERATURE IN CELSIUS
VSB - VISIBILITY IN STATUTE MILES
WCI - WIND CHILL INDEX
HX  - HEAT INDEX




USA.gov is the U.S. government's official web portal to all federal, state and local government web resources and services.